TGW39 YMML-WSSS

Flight info

Callsign TGW39
Flight time N/A
Altitude 38000
Route KEPPA3 KEPPA Q168 WR T29 CIN/N0486F400 A576 ATMAP M635 SURGA T23 UGEBO UGEBO1B
Aircraft B789/H-SDRP2G1WXJ2J3J5M1E1E2E3HY/LB1D1

Departure

Time N/A
Airport Melbourne Airport (YMML)

Arrival

Time 2026-05-04 15:51
Airport Singapore Changi Airport (WSSS)
Time Latitude Longitude Altitude Speed Heading
2026-05-04 15:12 0.23616 105.76508 39933 ft 494 kts 320°
2026-05-04 15:12 0.26191 105.74220 39933 ft 494 kts 320°
2026-05-04 15:13 0.30127 105.70724 39935 ft 494 kts 320°
2026-05-04 15:13 0.35237 105.66184 39235 ft 490 kts 320°
2026-05-04 15:13 0.37762 105.63941 38358 ft 494 kts 320°
2026-05-04 15:14 0.40342 105.61648 37472 ft 498 kts 319°
2026-05-04 15:14 0.42939 105.59339 36610 ft 501 kts 319°
2026-05-04 15:14 0.45544 105.57025 35792 ft 502 kts 319°
2026-05-04 15:14 0.48158 105.54702 34927 ft 503 kts 319°
2026-05-04 15:15 0.50774 105.52378 34027 ft 505 kts 319°
2026-05-04 15:15 0.53405 105.50040 33117 ft 507 kts 319°
2026-05-04 15:15 0.56046 105.47694 32146 ft 510 kts 319°
2026-05-04 15:16 0.61402 105.42936 30032 ft 518 kts 319°
2026-05-04 15:16 0.64220 105.40688 29050 ft 519 kts 328°
2026-05-04 15:16 0.70411 105.37097 27614 ft 509 kts 332°
2026-05-04 15:17 0.73451 105.35401 26966 ft 504 kts 332°
2026-05-04 15:17 0.79502 105.32018 25674 ft 493 kts 332°
2026-05-04 15:17 0.82481 105.30348 25043 ft 488 kts 332°
2026-05-04 15:18 0.85421 105.28700 24416 ft 482 kts 332°
2026-05-04 15:18 0.88328 105.27068 23793 ft 476 kts 332°
2026-05-04 15:18 0.91202 105.25454 23175 ft 471 kts 332°
2026-05-04 15:19 0.96840 105.22291 21950 ft 459 kts 332°
2026-05-04 15:19 0.99614 105.20734 21373 ft 453 kts 332°
2026-05-04 15:19 1.04914 105.17756 21108 ft 421 kts 332°
2026-05-04 15:20 1.07426 105.16344 20957 ft 407 kts 332°
2026-05-04 15:20 1.09854 105.14982 20772 ft 394 kts 333°
2026-05-04 15:20 1.12203 105.13663 20601 ft 381 kts 333°
2026-05-04 15:20 1.14468 105.12366 20422 ft 370 kts 330°
2026-05-04 15:21 1.16393 105.10717 20165 ft 364 kts 310°
2026-05-04 15:21 1.17562 105.08488 19692 ft 364 kts 286°
2026-05-04 15:21 1.17771 105.03477 18853 ft 359 kts 268°
2026-05-04 15:22 1.17685 105.00996 18476 ft 355 kts 268°
2026-05-04 15:22 1.17610 104.98542 18082 ft 352 kts 269°
2026-05-04 15:22 1.17485 104.93707 17327 ft 344 kts 269°
2026-05-04 15:23 1.17430 104.91348 17152 ft 335 kts 269°
2026-05-04 15:23 1.17377 104.88930 17076 ft 362 kts 269°
2026-05-04 15:23 1.17323 104.86387 17004 ft 378 kts 269°
2026-05-04 15:23 1.17266 104.83764 16738 ft 376 kts 269°
2026-05-04 15:24 1.17151 104.78538 15638 ft 374 kts 269°
2026-05-04 15:24 1.17017 104.73393 14868 ft 368 kts 268°
2026-05-04 15:25 1.16952 104.70850 14497 ft 365 kts 268°
2026-05-04 15:25 1.16888 104.68326 14120 ft 362 kts 268°
2026-05-04 15:25 1.16824 104.65824 13758 ft 360 kts 268°
2026-05-04 15:26 1.16698 104.60850 13024 ft 354 kts 268°
2026-05-04 15:26 1.16637 104.58401 12669 ft 351 kts 268°
2026-05-04 15:26 1.16515 104.53556 12027 ft 346 kts 268°
2026-05-04 15:27 1.16454 104.51162 11684 ft 343 kts 268°
2026-05-04 15:27 1.16334 104.46416 10972 ft 340 kts 268°
2026-05-04 15:28 1.16216 104.41725 10298 ft 335 kts 268°
2026-05-04 15:28 1.16157 104.39400 10033 ft 335 kts 269°
2026-05-04 15:28 1.15797 104.34773 9276 ft 332 kts 265°
2026-05-04 15:29 1.15582 104.32476 8933 ft 331 kts 265°
2026-05-04 15:30 1.14968 104.23471 7652 ft 321 kts 270°
2026-05-04 15:30 1.14963 104.16817 6754 ft 317 kts 270°
2026-05-04 15:31 1.14968 104.12439 6165 ft 314 kts 270°
2026-05-04 15:31 1.14970 104.10249 5863 ft 313 kts 270°
2026-05-04 15:32 1.15047 104.03814 4464 ft 302 kts 276°
2026-05-04 15:32 1.15664 103.99888 3568 ft 271 kts 280°
2026-05-04 15:33 1.16479 103.96264 2791 ft 264 kts 289°
2026-05-04 15:34 1.18955 103.91995 2505 ft 217 kts 343°
2026-05-04 15:34 1.20374 103.91887 2533 ft 196 kts
2026-05-04 15:34 1.22886 103.92669 2502 ft 191 kts 25°
2026-05-04 15:35 1.25289 103.93672 2090 ft 179 kts 23°
2026-05-04 15:35 1.26407 103.94146 1849 ft 170 kts 23°
2026-05-04 15:35 1.27467 103.94596 1623 ft 161 kts 23°
2026-05-04 15:36 1.29505 103.95461 1202 ft 159 kts 22°
2026-05-04 15:36 1.30507 103.95885 997 ft 153 kts 22°
2026-05-04 15:36 1.31456 103.96287 792 ft 144 kts 22°
2026-05-04 15:37 1.32364 103.96673 623 ft 141 kts 22°
2026-05-04 15:37 1.33260 103.97053 417 ft 141 kts 22°
2026-05-04 15:37 1.34165 103.97437 234 ft 141 kts 22°
2026-05-04 15:37 1.35040 103.97819 103 ft 146 kts 24°
2026-05-04 15:38 1.36170 103.98321 474 ft 195 kts 21°
2026-05-04 15:38 1.37513 103.98833 1382 ft 214 kts 20°
2026-05-04 15:38 1.38838 103.99366 2299 ft 200 kts 23°
2026-05-04 15:38 1.40124 103.99919 2793 ft 203 kts 23°
2026-05-04 15:39 1.41380 104.00453 2990 ft 191 kts 23°
2026-05-04 15:39 1.42595 104.00967 3030 ft 188 kts 23°
2026-05-04 15:39 1.45018 104.01984 3613 ft 194 kts 23°
2026-05-04 15:40 1.46267 104.02509 3926 ft 195 kts 23°
2026-05-04 15:40 1.47514 104.03041 3978 ft 195 kts 24°
2026-05-04 15:40 1.48572 104.03906 4006 ft 213 kts 57°
2026-05-04 15:40 1.49033 104.05392 3999 ft 232 kts 89°
2026-05-04 15:41 1.48629 104.06953 4000 ft 237 kts 121°
2026-05-04 15:41 1.47487 104.08133 4006 ft 238 kts 145°
2026-05-04 15:41 1.46102 104.09004 3998 ft 239 kts 149°
2026-05-04 15:41 1.44636 104.09804 3991 ft 240 kts 157°
2026-05-04 15:42 1.43014 104.10125 4001 ft 238 kts 176°
2026-05-04 15:42 1.41352 104.10164 3994 ft 238 kts 180°
2026-05-04 15:42 1.39696 104.10161 3986 ft 240 kts 180°
2026-05-04 15:42 1.38035 104.09994 3999 ft 241 kts 194°
2026-05-04 15:43 1.36442 104.09491 3996 ft 241 kts 199°
2026-05-04 15:43 1.34866 104.08919 3984 ft 241 kts 200°
2026-05-04 15:43 1.33294 104.08340 3982 ft 241 kts 200°
2026-05-04 15:43 1.31720 104.07758 3992 ft 241 kts 200°
2026-05-04 15:44 1.30149 104.07177 4001 ft 241 kts 200°
2026-05-04 15:44 1.28580 104.06594 3987 ft 240 kts 200°
2026-05-04 15:44 1.27013 104.06013 3959 ft 239 kts 200°
2026-05-04 15:44 1.25520 104.05359 3799 ft 230 kts 208°
2026-05-04 15:45 1.24121 104.04577 3411 ft 232 kts 210°
2026-05-04 15:45 1.22719 104.03761 2954 ft 235 kts 210°
2026-05-04 15:45 1.21306 104.02925 2582 ft 236 kts 211°
2026-05-04 15:45 1.20060 104.01861 2502 ft 236 kts 230°
2026-05-04 15:46 1.19349 104.00452 2490 ft 221 kts 261°
2026-05-04 15:46 1.19457 103.98999 2490 ft 201 kts 285°
2026-05-04 15:46 1.19853 103.97694 2486 ft 194 kts 289°
2026-05-04 15:46 1.20280 103.96415 2502 ft 194 kts 289°
2026-05-04 15:47 1.20807 103.95191 2494 ft 189 kts 303°
2026-05-04 15:47 1.21846 103.94550 2373 ft 171 kts 354°
2026-05-04 15:47 1.22973 103.94565 2199 ft 160 kts
2026-05-04 15:47 1.24056 103.94769 1942 ft 158 kts 20°
2026-05-04 15:48 1.25064 103.95218 1711 ft 159 kts 24°
2026-05-04 15:48 1.26097 103.95631 1491 ft 160 kts 22°
2026-05-04 15:48 1.28130 103.96490 1057 ft 153 kts 22°
2026-05-04 15:49 1.29083 103.96891 846 ft 144 kts 22°
2026-05-04 15:49 1.29991 103.97276 671 ft 141 kts 22°
2026-05-04 15:49 1.30890 103.97657 488 ft 141 kts 22°
2026-05-04 15:49 1.31793 103.98040 292 ft 141 kts 22°
2026-05-04 15:50 1.32693 103.98422 124 ft 140 kts 22°
2026-05-04 15:50 1.33587 103.98801 45 ft 134 kts 22°
2026-05-04 15:50 1.34129 103.99026 37 ft 117 kts 22°
2026-05-04 15:50 1.34779 103.99298 37 ft 85 kts 23°
2026-05-04 15:51 1.35217 103.99487 37 ft 52 kts 23°
2026-05-04 15:51 1.35515 103.99614 37 ft 45 kts 21°
2026-05-04 15:51 1.35791 103.99673 37 ft 30 kts 359°
2026-05-04 15:51 1.35906 103.99606 37 ft 18 kts 291°
2026-05-04 15:52 1.35952 103.99489 37 ft 19 kts 293°
2026-05-04 15:52 1.36006 103.99371 37 ft 13 kts 301°
2026-05-04 15:52 1.36087 103.99353 37 ft 14 kts 11°
2026-05-04 15:52 1.36176 103.99390 37 ft 14 kts 25°
2026-05-04 15:53 1.36266 103.99407 37 ft 13 kts 326°
2026-05-04 15:53 1.36313 103.99354 37 ft 0 kts 308°